User: anonymous
Location: Fort Wayne
(41.1310°N, 85.1290°W)
Time: 03:47:55
(UTC-04:00)
Language:

Cosmos 2227 Rocket - Orbit

View from above orbital plane
View from above orbital plane
View from above satellite
View from above satellite

Ground track
Ground track

The orbit data is extracted from the following two-line orbital elements,

1 22285U 92093B   14213.16292082  .00000275  00000-0  16680-3 0  3614
2 22285 071.0206 256.9723 0006374 285.6726 074.3693 14.14915106113860
Epoch (UTC): 01 August 2014 03:54:36
Eccentricity: 0.0006374
inclination: 71.0206°
perigee height: 838 km
apogee height: 847 km
right ascension of ascending node: 256.9723°
argument of perigee: 285.6726°
revolutions per day: 14.14915106
mean anomaly at epoch: 74.3693°
orbit number at epoch: 11386

The dashed part of the orbit path shows where the satellite is in the earth's shadow,  

DLR